• In Uzbekistan
  • List of Countries
  • For 7 days
  • Water Temperature
  • Satellite Maps
  • Weather Map
  • Weather Widgets
  • user-avatar
    Login

    Hourly Weather Akhaltsikhe

    Today, 16 July, Monday

    Time Temperature Precipitation Wind Pressure Humidity
    00:00 +15°C° 1 mm 1 mps 646 mmHg 98%
    01:00 +14°C° 0.1 mm 1 mps 646 mmHg 98%
    02:00 +14°C° 0.1 mm 1 mps 646 mmHg 98%
    03:00 +14°C° 0 mm 2 mps 646 mmHg 99%
    04:00 +14°C° 0.1 mm 1 mps 646 mmHg 98%
    05:00 +14°C° 0.1 mm 1 mps 646 mmHg 97%
    06:00 +14°C° 0.1 mm 1 mps 646 mmHg 97%
    07:00 +15°C° 0 mm 1 mps 646 mmHg 92%
    08:00 +16°C° 0 mm 1 mps 646 mmHg 88%
    09:00 +16°C° 0 mm 2 mps 646 mmHg 86%
    10:00 +18°C° 0.1 mm 2 mps 647 mmHg 79%
    11:00 +19°C° 0.1 mm 2 mps 647 mmHg 73%
    12:00 +20°C° 0.1 mm 2 mps 647 mmHg 67%
    13:00 +20°C° 0.3 mm 3 mps 647 mmHg 68%
    14:00 +20°C° 0.3 mm 3 mps 647 mmHg 66%
    15:00 +20°C° 0 mm 2 mps 647 mmHg 65%
    16:00 +20°C° 0 mm 2 mps 647 mmHg 68%
    17:00 +19°C° 0 mm 2 mps 647 mmHg 72%
    18:00 +18°C° 0 mm 2 mps 647 mmHg 75%
    19:00 +17°C° 0 mm 2 mps 647 mmHg 82%
    20:00 +15°C° 0 mm 1 mps 647 mmHg 89%
    21:00 +13°C° 0 mm 1 mps 646 mmHg 96%
    22:00 +13°C° 0 mm 1 mps 647 mmHg 96%
    23:00 +12°C° 0 mm 1 mps 647 mmHg 96%

    Tomorrow, 17 July, Tuesday

    Time Temperature Precipitation Wind Pressure Humidity
    00:00 +11°C° 0 mm 0 mps 647 mmHg 96%
    01:00 +12°C° 0 mm 1 mps 647 mmHg 95%
    02:00 +11°C° 0 mm 1 mps 646 mmHg 94%
    03:00 +11°C° 0 mm 1 mps 646 mmHg 93%
    04:00 +12°C° 0 mm 1 mps 646 mmHg 91%
    05:00 +12°C° 0 mm 1 mps 647 mmHg 89%
    06:00 +13°C° 0 mm 1 mps 647 mmHg 87%
    07:00 +15°C° 0 mm 1 mps 647 mmHg 78%
    08:00 +18°C° 0 mm 1 mps 648 mmHg 68%
    09:00 +21°C° 0 mm 1 mps 648 mmHg 59%
    10:00 +21°C° 0 mm 2 mps 648 mmHg 55%
    11:00 +23°C° 0 mm 2 mps 648 mmHg 52%
    12:00 +24°C° 0 mm 2 mps 649 mmHg 49%
    13:00 +24°C° 0 mm 2 mps 648 mmHg 51%
    14:00 +24°C° 0 mm 3 mps 648 mmHg 53%
    15:00 +22°C° 0 mm 3 mps 648 mmHg 55%
    16:00 +22°C° 0.1 mm 3 mps 648 mmHg 60%
    17:00 +21°C° 0.1 mm 2 mps 648 mmHg 66%
    18:00 +20°C° 0.1 mm 2 mps 648 mmHg 71%
    19:00 +18°C° 0 mm 2 mps 648 mmHg 79%
    20:00 +16°C° 0 mm 1 mps 647 mmHg 87%
    21:00 +14°C° 0 mm 1 mps 647 mmHg 95%
    22:00 +14°C° 0 mm 1 mps 647 mmHg 95%
    23:00 +14°C° 0 mm 1 mps 647 mmHg 94%

    Day after tomorrow, 18 July, Wednesday

    Time Temperature Precipitation Wind Pressure Humidity
    00:00 +13°C° 0 mm 1 mps 647 mmHg 94%
    01:00 +13°C° 0 mm 1 mps 647 mmHg 93%
    02:00 +13°C° 0 mm 1 mps 647 mmHg 91%
    03:00 +13°C° 0 mm 1 mps 646 mmHg 90%
    04:00 +13°C° 0 mm 1 mps 646 mmHg 88%
    05:00 +14°C° 0 mm 1 mps 646 mmHg 85%
    06:00 +14°C° 0 mm 1 mps 646 mmHg 83%
    07:00 +18°C° 0 mm 1 mps 647 mmHg 73%
    08:00 +21°C° 0 mm 1 mps 647 mmHg 63%
    09:00 +24°C° 0 mm 1 mps 648 mmHg 53%
    10:00 +26°C° 0 mm 1 mps 648 mmHg 50%
    11:00 +27°C° 0 mm 1 mps 648 mmHg 47%
    12:00 +28°C° 0 mm 1 mps 648 mmHg 45%
    13:00 +28°C° 0.2 mm 1 mps 648 mmHg 47%
    14:00 +28°C° 0.2 mm 2 mps 647 mmHg 50%
    15:00 +27°C° 0.2 mm 2 mps 647 mmHg 52%
    16:00 +26°C° 0.5 mm 2 mps 647 mmHg 57%
    17:00 +25°C° 0.5 mm 2 mps 646 mmHg 61%
    18:00 +24°C° 0.5 mm 2 mps 646 mmHg 66%
    19:00 +21°C° 0.3 mm 2 mps 646 mmHg 71%
    20:00 +20°C° 0.3 mm 1 mps 646 mmHg 77%
    21:00 +18°C° 0.3 mm 1 mps 646 mmHg 83%
    22:00 +18°C° 0.1 mm 1 mps 646 mmHg 83%
    23:00 +18°C° 0.1 mm 1 mps 646 mmHg 83%

    19 July, Thursday

    Time Temperature Precipitation Wind Pressure Humidity
    00:00 +16°C° 0.1 mm 1 mps 646 mmHg 83%
    01:00 +16°C° 0 mm 1 mps 646 mmHg 82%
    02:00 +16°C° 0 mm 1 mps 646 mmHg 81%
    03:00 +15°C° 0 mm 1 mps 645 mmHg 80%
    04:00 +16°C° 0 mm 1 mps 646 mmHg 79%
    05:00 +16°C° 0 mm 1 mps 646 mmHg 78%
    06:00 +18°C° 0 mm 1 mps 646 mmHg 78%
    07:00 +20°C° 0 mm 1 mps 646 mmHg 69%
    08:00 +23°C° 0 mm 1 mps 647 mmHg 60%
    09:00 +26°C° 0 mm 1 mps 648 mmHg 52%
    10:00 +27°C° 0.1 mm 1 mps 648 mmHg 49%
    11:00 +28°C° 0.1 mm 1 mps 648 mmHg 46%
    12:00 +29°C° 0.1 mm 2 mps 648 mmHg 44%
    13:00 +29°C° 0.2 mm 2 mps 648 mmHg 46%
    14:00 +29°C° 0.2 mm 2 mps 648 mmHg 48%
    15:00 +29°C° 0.2 mm 3 mps 648 mmHg 49%
    16:00 +28°C° 0.4 mm 2 mps 648 mmHg 55%
    17:00 +27°C° 0.4 mm 2 mps 647 mmHg 61%
    18:00 +26°C° 0.4 mm 2 mps 647 mmHg 67%
    19:00 +23°C° 0.2 mm 2 mps 647 mmHg 73%
    20:00 +21°C° 0.2 mm 1 mps 647 mmHg 80%
    21:00 +19°C° 0.2 mm 1 mps 647 mmHg 87%
    22:00 +19°C° 0 mm 1 mps 647 mmHg 86%
    23:00 +18°C° 0 mm 1 mps 647 mmHg 85%

    20 July, Friday

    Time Temperature Precipitation Wind Pressure Humidity
    00:00 +18°C° 0 mm 1 mps 647 mmHg 85%
    01:00 +18°C° 0 mm 1 mps 646 mmHg 84%
    02:00 +16°C° 0 mm 1 mps 646 mmHg 83%
    03:00 +16°C° 0 mm 1 mps 646 mmHg 83%
    04:00 +16°C° 0 mm 1 mps 646 mmHg 82%
    05:00 +18°C° 0 mm 1 mps 646 mmHg 81%
    06:00 +18°C° 0 mm 1 mps 647 mmHg 80%
    07:00 +21°C° 0 mm 1 mps 647 mmHg 72%
    08:00 +24°C° 0 mm 1 mps 648 mmHg 64%
    09:00 +26°C° 0 mm 1 mps 648 mmHg 56%
    10:00 +28°C° 0 mm 1 mps 648 mmHg 52%
    11:00 +29°C° 0 mm 2 mps 649 mmHg 48%
    12:00 +30°C° 0 mm 2 mps 649 mmHg 44%
    13:00 +29°C° 0.2 mm 2 mps 648 mmHg 47%
    14:00 +29°C° 0.2 mm 3 mps 648 mmHg 51%
    15:00 +28°C° 0.2 mm 3 mps 648 mmHg 55%
    16:00 +27°C° 0.6 mm 3 mps 647 mmHg 63%
    17:00 +26°C° 0.6 mm 3 mps 647 mmHg 71%
    18:00 +24°C° 0.6 mm 3 mps 647 mmHg 79%
    19:00 +23°C° 0.3 mm 2 mps 647 mmHg 85%
    20:00 +20°C° 0.3 mm 2 mps 647 mmHg 90%
    21:00 +18°C° 0.3 mm 2 mps 647 mmHg 96%
    22:00 +19°C° 0.2 mm 1 mps 647 mmHg 96%
    23:00 +19°C° 0.2 mm 1 mps 647 mmHg 96%

    21 July, Saturday

    Time Temperature Precipitation Wind Pressure Humidity
    00:00 +18°C° 0.2 mm 1 mps 647 mmHg 97%
    01:00 +18°C° 0 mm 1 mps 647 mmHg 97%
    02:00 +18°C° 0 mm 1 mps 647 mmHg 97%
    03:00 +18°C° 0 mm 1 mps 647 mmHg 97%
    04:00 +18°C° 0 mm 1 mps 647 mmHg 96%
    05:00 +18°C° 0 mm 1 mps 647 mmHg 95%
    06:00 +18°C° 0 mm 1 mps 647 mmHg 94%
    07:00 +20°C° 0 mm 1 mps 647 mmHg 87%
    08:00 +22°C° 0 mm 1 mps 648 mmHg 80%
    09:00 +23°C° 0 mm 1 mps 648 mmHg 73%
    10:00 +24°C° 0 mm 2 mps 648 mmHg 71%
    11:00 +24°C° 0 mm 2 mps 648 mmHg 70%
    12:00 +25°C° 0 mm 2 mps 648 mmHg 68%
    13:00 +25°C° 0.2 mm 2 mps 648 mmHg 69%
    14:00 +25°C° 0.2 mm 3 mps 647 mmHg 69%
    15:00 +25°C° 0.2 mm 3 mps 647 mmHg 70%
    16:00 +24°C° 0.2 mm 3 mps 647 mmHg 74%
    17:00 +22°C° 0.2 mm 3 mps 647 mmHg 78%
    18:00 +21°C° 0.2 mm 3 mps 647 mmHg 82%
    19:00 +20°C° 0.2 mm 2 mps 647 mmHg 87%
    20:00 +19°C° 0.2 mm 2 mps 647 mmHg 92%
    21:00 +19°C° 0.2 mm 1 mps 648 mmHg 97%
    22:00 +18°C° 0 mm 1 mps 648 mmHg 97%
    23:00 +18°C° 0 mm 1 mps 647 mmHg 97%
    Show more